This is the latest recevied weather packets stored in our database for station/object AG1T-1. If no packets are shown the sender has not sent any weather packets the latest 10 day(s).
| Time | Temp. | Humidity | Pressure | Rain* | Wind** | Luminosity | Snow |
|---|---|---|---|---|---|---|---|
| 1777407003 | 11.11° C | 46% | 1023.7 hPa | 0.25 mm | - | 970 W/m² | - |
| 1777406403 | 10.56° C | 47% | 1023.8 hPa | 0.51 mm | - | 949 W/m² | - |
| 1777405803 | 10.56° C | 49% | 1023.8 hPa | 0.51 mm | - | 1041 W/m² | - |
| 1777405203 | 10° C | 50% | 1023.9 hPa | 0.25 mm | - | 487 W/m² | - |
| 1777404603 | 10° C | 50% | 1024 hPa | 0.25 mm | - | 364 W/m² | - |
| 1777404003 | 10° C | 58% | 1024 hPa | 0.25 mm | - | 925 W/m² | - |
| 1777403403 | 9.44° C | 57% | 1024.1 hPa | 0.25 mm | - | 388 W/m² | - |
| 1777402803 | 9.44° C | 60% | 1024.2 hPa | 0.25 mm | - | 309 W/m² | - |
| 1777402203 | 9.44° C | 58% | 1024 hPa | 0.25 mm | - | 274 W/m² | - |
| 1777401603 | 10° C | 54% | 1023.8 hPa | 0.25 mm | - | 163 W/m² | - |
| 1777401003 | 10° C | 50% | 1023.8 hPa | 0.51 mm | - | 253 W/m² | - |
| 1777400403 | 10° C | 50% | 1023.7 hPa | 0.51 mm | - | 295 W/m² | - |
| 1777399803 | 10.56° C | 47% | 1023.7 hPa | 0.51 mm | - | 366 W/m² | - |
| 1777399203 | 10.56° C | 50% | 1023.8 hPa | 0.25 mm | - | 399 W/m² | - |
| 1777398603 | 10.56° C | 54% | 1023.8 hPa | 0.25 mm | - | 526 W/m² | - |
| 1777398003 | 10.56° C | 54% | 1023.8 hPa | 0.51 mm | - | 976 W/m² | - |
| 1777397403 | 10° C | 52% | 1023.8 hPa | 0.25 mm | - | 357 W/m² | - |
| 1777396803 | 10° C | 54% | 1023.8 hPa | 0.25 mm | - | 933 W/m² | - |
| 1777396203 | 10° C | 54% | 1023.8 hPa | 0.51 mm | - | 933 W/m² | - |
| 1777395603 | 9.44° C | 60% | 1023.9 hPa | 0.51 mm | - | 360 W/m² | - |
| 1777395003 | 9.44° C | 63% | 1023.9 hPa | 0.51 mm | - | 339 W/m² | - |
| 1777394403 | 8.89° C | 68% | 1023.8 hPa | 0.25 mm | - | 793 W/m² | - |
| 1777393803 | 8.89° C | 66% | 1023.8 hPa | 0.51 mm | - | 127 W/m² | - |
| 1777393203 | 9.44° C | 67% | 1023.8 hPa | 0.51 mm | - | 163 W/m² | - |
| 1777392603 | 8.89° C | 68% | 1023.8 hPa | 0.25 mm | - | 633 W/m² | - |
* Rain latest hour (hover to see other rain measurements)
** Current wind speed in m/s (hover to see current wind gust speed)